Track LAPAN A2 (IO-86) now! 10-day predictions LAPAN A2 (IO-86) is classified as:
1 40931U 15052B 23159.38179293 .00001153 00000-0 70186-4 0 9998 2 40931 5.9979 149.3605 0013003 172.9256 187.1055 14.77231243415938